Regional Weather Roundup
Issued by NWS Albany, NY

Home | Current Version | Previous Version | Text Only | Print | Product List | Glossary On
Versions: 1 2 3 4 5 6 7 8 9 10 11 12 13 14 15 16 17 18 19 20 21 22 23 24 25 26 27 28 29 30 31 32 33 34 35 36 37 38 39 40 41 42 43 44 45 46 47 48 49 50
000
ASUS41 KALY 030210
RWRALY

NEW YORK STATE HOURLY WEATHER ROUNDUP
NATIONAL WEATHER SERVICE ALBANY NY
1000 PM EDT TUE SEP 02 2014

NOTE: "FAIR" INDICATES FEW OR NO CLOUDS BELOW 12,000 FEET WITH NO
SIGNIFICANT WEATHER AND/OR NO OBSTRUCTIONS TO VISIBILITY.

NYZ032-033-038>043-046>054-057>066-NYZ062>081-030300-
EAST


CITY           SKY/WX    TMP DP  RH WIND       PRES   REMARKS
ALBANY         CLOUDY    77  67  71 NW21G26   29.78R
GLENS FALLS    CLOUDY    71  67  87 W7        29.76R
POUGHKEEPSIE   PTCLDY    83  67  58 SW5       29.77S
NEWBURGH       MOCLDY    81  70  69 SW9       29.81S
MONTGOMERY     LGT RAIN  78  70  76 SW9       29.79S
WHITE PLAINS   CLEAR     82  66  58 VRB3      29.81F
ISLIP          MOCLDY    80  72  76 SW8       29.80S
NEW YORK CITY  MOCLDY    86  70  58 SW12G21   29.80S HX  90
CENTRAL PARK   PTCLDY    84  69  60 W10G17    29.84S
$$

NYZ005>009-017-018-044>046-055-056-030300-
CENTRAL


CITY           SKY/WX    TMP DP  RH WIND       PRES   REMARKS
FULTON         CLOUDY    64  61  90 SW6       29.86R
SYRACUSE       MOCLDY    65  65 100 SW7       29.85R
ROME           CLOUDY    67  64  90 W3        29.82F
ELMIRA         PTCLDY    66  65  96 CALM      29.89R
BINGHAMTON     MOCLDY    65  64  97 W10       29.90R
MONTICELLO     CLOUDY    72  68  88 SW8       29.85F
$$

NYZ026>034-041>043-030300-
NORTH


CITY           SKY/WX    TMP DP  RH WIND       PRES   REMARKS
WATERTOWN      CLOUDY    67  61  81 W10       29.82R
FORT DRUM      NOT AVBL
MASSENA        CLOUDY    65  65 100 W6        29.77R
SARANAC LAKE   LGT RAIN  60  59  96 SE6       29.78F
PLATTSBURGH    LGT RAIN  67  65  93 CALM      29.77R
$$

NYZ001>004-010>016-019>021-030300-
WEST


CITY           SKY/WX    TMP DP  RH WIND       PRES   REMARKS
NIAGARA FALLS  PTCLDY    67  64  90 W9        29.88R
BUFFALO        PTCLDY    68  65  90 W7        29.89R
DUNKIRK        MOCLDY    66  65  96 S6        29.92R
JAMESTOWN      CLOUDY    55  55 100 W9        29.96S
WELLSVILLE     MOCLDY    64  61  90 W7        29.97R
ROCHESTER      MOCLDY    66  64  94 W5        29.88R
PENN YAN       PTCLDY    65  62  90 SW6       29.89S
$$

             KEY
       WCI = WIND CHILL INDEX
       VSB = VISIBILITY
       HX  = HEAT INDEX
$$



USA.gov is the U.S. government's official web portal to all federal, state and local government web resources and services.